Orbital Elements at Epoch 2459200.5 (2020-Dec-17.0) TDB
Reference: JPL 41 (heliocentric ecliptic J2000)
Element | Value | Uncertainty (1-sigma) | Units |
e | .1757589430956762 | 1.4484e-08 | |
a | 2.366707066217218 | 5.8333e-09 | au |
q | 1.950737133641811 | 3.4672e-08 | au |
i | 4.78778643570862 | 4.3589e-07 | deg |
node | 187.4706774134987 | 7.863e-06 | deg |
peri | 321.015942000998 | 1.084e-05 | deg |
M | 276.6282972406279 | 6.2616e-06 | deg |
tp | 2459508.486271869951 (2021-Oct-20.98627187) | 2.3729e-05 | TDB |
period | 1329.888369836834 3.64 | 4.9168e-06 1.346e-08 | d yr |
n | .270699412195152 | 1.0008e-09 | deg/d |
Q | 2.782676998792625 | 6.8586e-09 | au |
|
| | Orbit Determination Parameters
Additional Information
|